Cloud_Cover
43 8 0 0 0 0 0 0 3 28 20 0 0 0 0 4 2 0 0 0 2 4 5 0 0 5 0 0 0 0 0 0 0 0 0 2 4 2 4 1 10 11 0
5 11 0 5 0 0 0 0 0 0 2 16 17 12 0 0 12 0 0 0 0 0 0 0 1 1 3 0 0 0 1 3 0 0 0 0 0 5 5 5 5 5 5
22 16 6 5 0 0 0 0 0 0 0 0 0 6 20 0 0 1 0 0 0 0 0 0 0 0 0 0 0 0 0 0 2 0 0 2 39 2 0 0 0 5 92
69 94 17 5 3 2 2 0 0 0 0 0 0 0 0 1 13 16 9 1 0 0 0 0 1 5 5 4 2 3 5 5 5 2 16 9 6 0 0 0 0 0 5
98 100 12 5 3 5 5 2 3 0 0 0 0 0 0 0 11 11 3 9 0 0 0 0 0 0 0 0 0 0 0 0 0 0 4 17 0 17 0 5 18 5 0
100 100 5 5 5 5 5 26 23 18 28 24 5 5 23 4 18 12 9 5 1 0 0 0 0 0 0 0 0 0 0 0 0 0 0 0 0 1 0 0 4 0 0
100 94 44 5 7 5 5 5 4 0 0 0 0 0 9 84 53 31 23 25 16 12 16 12 24 21 16 8 16 4 0 0 0 0 0 0 4 0 0 0 6 0 5
95 97 33 19 5 5 5 5 5 5 0 0 0 0 0 0 0 0 0 0 1 7 23 23 10 8 10 4 20 6 0 0 0 0 1 0 0 0 0 0 0 0 51
33 24 17 20 7 6 7 5 9 14 0 0 0 0 0 0 0 0 0 0 0 0 0 0 0 2 12 20 6 0 1 55 66 52 59 57 0 0 0 0 0 0 0
99 100 100 98 40 52 8 35 18 22 5 3 1 0 0 0 0 0 0 0 0 0 0 0 0 0 0 0 0 0 0 24 29 64 99 86 100 5 0 0 0 0 0
100 100 100 97 68 16 52 84 98 16 5 5 5 5 5 4 0 0 0 0 0 0 0 0 0 0 0 0 0 0 34 5 99 98 57 37 93 98 20 19 2 0 0
100 100 100 80 100 93 100 94 98 9 5 5 5 5 5 2 2 5 5 0 0 0 0 0 0 0 0 0 0 0 0 0 1 0 2 37 0 63 81 66 33 26 5
100 100 100 100 100 100 64 98 100 100 5 5 5 39 7 8 4 3 5 0 0 0 0 0 0 0 0 0 0 0 0 0 0 0 0 0 0 0 77 100 93 82 85
100 100 100 100 100 100 100 100 100 90 71 26 5 5 5 5 0 0 1 2 1 0 0 0 0 0 0 0 0 0 0 0 0 0 0 0 0 0 0 15 93 95 88
100 100 98 91 100 100 100 100 91 67 33 5 5 5 5 5 0 0 0 3 17 0 0 0 0 0 0 0 0 0 0 0 0 0 0 0 0 0 0 0 0 0 0
92 95 100 100 100 100 100 100 100 97 30 5 5 48 5 5 9 98 100 45 4 0 0 0 0 0 0 0 0 0 0 0 0 0 0 0 0 0 0 0 0 0 0
100 100 100 100 100 100 100 100 100 100 82 19 42 7 26 92 100 100 93 2 0 0 0 0 0 0 0 0 0 0 0 0 0 0 0 0 0 0 0 0 0 0 0
5 50 97 100 63 68 67 88 63 5 63 83 90 100 100 100 100 90 6 0 0 0 0 0 0 1 0 0 0 0 0 0 0 0 0 0 0 0 0 0 0 0 0
5 11 87 83 11 27 57 15 86 94 91 100 89 76 63 16 1 0 0 0 0 0 8 14 26 7 0 0 0 0 0 0 0 0 0 0 0 0 0 0 0 0 0
31 100 27 44 8 5 5 4 1 4 2 0 0 0 0 0 0 0 0 0 9 20 34 6 0 0 0 0 0 0 0 0 2 0 3 2 5 0 0 0 0 0 0
78 10 5 5 5 2 0 0 0 0 0 0 0 0 0 0 0 0 5 9 24 30 26 23 29 27 0 0 0 0 0 0 0 0 0 0 0 0 0 0 0 0 0
5 4 0 0 0 0 0 0 0 0 0 0 0 0 0 0 0 0 16 23 41 40 30 69 96 63 25 0 2 0 0 0 0 0 0 0 0 0 19 9 0 0 0
0 0 0 0 0 0 0 0 0 0 0 0 0 0 0 0 0 23 31 99 100 100 100 100 100 100 75 12 27 20 6 0 0 0 0 0 0 16 38 3 25 24 11
0 0 0 0 0 0 0 0 0 0 1 0 0 0 0 0 0 18 74 100 100 100 100 100 100 100 100 28 6 100 100 96 91 0 0 0 0 30 8 0 0 0 1
0 0 0 0 0 0 0 2 5 5 0 0 0 0 0 0 0 2 26 100 100 100 100 100 100 100 100 100 28 100 100 100 100 94 59 17 0 4 18 1 2 0 5
0 0 0 0 0 0 3 5 4 0 0 1 2 0 0 0 0 19 4 30 93 88 98 100 100 100 100 100 100 100 100 100 100 100 100 100 95 5 2 64 82 41 36